Dallas/Ft Worth, TX

12:04 AM CDT on September 22, 2017 (GMT -0500)
Dallas-Fort Worth International

Weather History for KDFW - October, 2012

Change the Weather History Date:

Tuesday, October 2, 2012

  Actual Average Record
Temperature  
Mean Temperature 70 °F 72 °F  
Max Temperature 81 °F 83 °F 99 °F (1951)
Min Temperature 59 °F 61 °F 47 °F (1985)
Degree Days  
Heating Degree Days 0 1  
Month to date heating degree days 0 2  
Since 1 July heating degree days 0 8  
Cooling Degree Days 5 8  
Month to date cooling degree days 9 16  
Year to date cooling degree days 3007 2593  
Growing Degree Days 22 (Base 50)    
Moisture  
Dew Point 52 °F    
Average Humidity 60    
Maximum Humidity 87    
Minimum Humidity 33    
Precipitation  
Precipitation 0.00 in 0.10 in 3.54 in (1998)
Month to date precipitation 0.00 0.19  
Year to date precipitation 31.47 26.85  
Snow  
Snow 0.00 in 0.00 in 0.00 in ()
Month to date snowfall 0.0 0.0  
Since 1 July snowfall 0.0 0.0  
Since 1 September snowfall 0.0 0.0  
Snow Depth 0.00 in    
Sea Level Pressure  
Sea Level Pressure 29.91 in    
Wind  
Wind Speed 7 mph (NW)    
Max Wind Speed 12 mph    
Max Gust Speed 17 mph    
Visibility 10 miles    
Events      
T = Trace of Precipitation, MM = Missing Value Source: NWS Daily Summary

Daily Weather History Graph

Daily Weather History Graph

Search for Another Location

Airport or City:

Trip Planner

Search our weather history database for the weather conditions in past years. The results will help you decide how hot, cold, wet, or windy it might be!

Date:

Astronomy

Oct. 02, 2012 Rise Set
Actual Time 7:23 AM CDT 7:10 PM CDT
Civil Twilight 6:58 AM CDT 7:35 PM CDT
Nautical Twilight 6:30 AM CDT 8:03 PM CDT
Astronomical Twilight 6:01 AM CDT 8:32 PM CDT
Moon 8:35 PM CDT (10/2) 9:41 AM CDT (10/2)
Length of Visible Light 12h 36m
Length of Day
11h 47m
Waning Gibbous, 94% of the Moon is Illuminated
Oct 2
Waning Gibbous
Oct 8
Last Quarter
Oct 15
New
Oct 21
First Quarter
Oct 29
Full

Hourly Weather History & Observations

Time (CDT) Temp. Dew Point Humidity Pressure Visibility Wind Dir Wind Speed Gust Speed Precip Events Conditions
12:53 AM 70.0 °F 52.0 °F 53% 29.84 in 10.0 mi NNW 13.8 mph - N/A   Mostly Cloudy
1:53 AM 68.0 °F 52.0 °F 56% 29.86 in 10.0 mi NNW 12.7 mph - N/A   Mostly Cloudy
2:53 AM 66.2 °F 51.8 °F 60% 29.88 in 10.0 mi NNW 12.7 mph - N/A   Mostly Cloudy
3:53 AM 66.0 °F 54.0 °F 65% 29.86 in 10.0 mi NNW 11.5 mph - N/A   Mostly Cloudy
4:53 AM 64.0 °F 54.0 °F 70% 29.88 in 10.0 mi NNW 13.8 mph - N/A   Mostly Cloudy
5:53 AM 64.0 °F 54.0 °F 70% 29.90 in 10.0 mi NNW 9.2 mph - N/A   Overcast
6:53 AM 64.0 °F 54.0 °F 70% 29.91 in 10.0 mi NNW 11.5 mph - 0.00 in   Overcast
7:53 AM 64.0 °F 54.0 °F 70% 29.93 in 10.0 mi NNW 8.1 mph - N/A   Mostly Cloudy
8:53 AM 66.0 °F 54.0 °F 65% 29.94 in 10.0 mi North 8.1 mph - N/A   Mostly Cloudy
9:53 AM 68.0 °F 53.1 °F 59% 29.96 in 10.0 mi North 10.4 mph - N/A   Mostly Cloudy
10:53 AM 69.1 °F 53.1 °F 57% 29.96 in 10.0 mi NNW 6.9 mph - N/A   Mostly Cloudy
11:53 AM 73.0 °F 54.0 °F 51% 29.96 in 10.0 mi North 6.9 mph - N/A   Mostly Cloudy
12:53 PM 75.9 °F 53.1 °F 45% 29.94 in 10.0 mi WNW 10.4 mph - N/A   Mostly Cloudy
1:53 PM 78.1 °F 52.0 °F 40% 29.91 in 10.0 mi WNW 12.7 mph - N/A   Mostly Cloudy
2:53 PM 80.1 °F 52.0 °F 38% 29.89 in 10.0 mi NNW 10.4 mph - N/A   Mostly Cloudy
3:53 PM 78.1 °F 52.0 °F 40% 29.89 in 10.0 mi NW 8.1 mph - N/A   Overcast
4:53 PM 77.0 °F 51.1 °F 40% 29.89 in 10.0 mi NW 5.8 mph - N/A   Overcast
5:53 PM 79.0 °F 50.0 °F 36% 29.88 in 10.0 mi NNW 5.8 mph - N/A   Overcast
6:53 PM 77.0 °F 50.0 °F 39% 29.91 in 10.0 mi Calm Calm - N/A   Mostly Cloudy
7:53 PM 73.0 °F 51.1 °F 46% 29.89 in 10.0 mi Calm Calm - N/A   Partly Cloudy
8:53 PM 73.0 °F 51.1 °F 46% 29.91 in 10.0 mi West 5.8 mph - N/A   Scattered Clouds
9:53 PM 72.0 °F 52.0 °F 49% 29.92 in 10.0 mi West 6.9 mph - N/A   Scattered Clouds
10:53 PM 69.1 °F 53.1 °F 57% 29.93 in 10.0 mi WSW 5.8 mph - N/A   Scattered Clouds
11:53 PM 69.1 °F 52.0 °F 54% 29.93 in 10.0 mi West 5.8 mph - N/A   Partly Cloudy